Tracking 22458 objects as of 4-Mar-2021
HD Live streaming from Space Station
objects crossing your sky now

DELTA 1 DEB

Track DELTA 1 DEB now!
10-day predictions


NORAD ID: 10183
Int'l Code: 1977-065M
Perigee: 565.8 km
Apogee: 1,377.4 km
Inclination: 29.2 °
Period: 104.4 minutes
Semi major axis: 7342 km
RCS: 0.111 m2 (medium)
Launch date: July 14, 1977
Source: United States (US)
Launch site: AIR FORCE EASTERN TEST RANGE (AFETR)

Note: This is SATELLITE DEBRIS
aabbcc
Your satellite tracking list
Your tracking list is empty




NASA's NSSDC Master Catalog

Two Line Element Set (TLE):
1 10183U 77065M   21063.47613902  .00000204  00000-0  33986-4 0  9991
2 10183  29.2083 190.5549 0552658  68.7119 297.1538 13.79835421142099
Source of the keplerian elements: AFSPC